Regional Weather Roundup
Issued by NWS Sterling, VA

Home | Current Version | Previous Version | Graphics & Text | Print | Product List | Glossary On
Versions: 1 2 3 4 5 6 7 8 9 10 11 12 13 14 15 16 17 18 19 20 21 22 23 24 25 26 27 28 29 30 31 32 33 34 35 36 37 38 39 40 41 42 43 44 45 46 47 48 49 50
000
ASUS41 KLWX 250710
RWRLWX

REGIONAL WEATHER ROUNDUP
NATIONAL WEATHER SERVICE BALTIMORE MD/WASHINGTON DC
300 AM EDT MON MAY 25 2015

Note: "FAIR" indicates few or no clouds below 12,000 feet
with no significant weather and/or obstructions to visibility.
 TC=TEMPERATURE CELSIUS

 * =Non NWS site. Station does not report precipitation (e.g. rain,
    snow, etc.), thunder, or fog.

DCZ001-MDZ009-015-VAZ040>042-051-053>054-250800-
WASHINGTON METRO

CITY           SKY/WX    TMP DP  RH WIND       PRES   REMARKS
WASHINGTON NAT PTCLDY    68  57  68 S8        30.25F
DULLES         CLEAR     64  55  72 S7        30.24F
ANDREWS AFB    CLEAR     64  57  79 S8        30.25S
FT BELVOIR     CLEAR     60  56  89 CALM      30.25S
QUANTICO       CLEAR     68  56  65 SW6       30.26F
COLLEGE PARK*  CLEAR     61  61 100 CALM      30.25S
LEESBURG*      CLEAR     63  59  88 CALM      30.25S
MANASSAS*      CLEAR     61  57  88 S6        30.25F
GAITHERSBURG*  CLEAR     66  54  63 CALM      30.28F

$$

MDZ006>007-011-014-250800-
BALTIMORE METRO

CITY           SKY/WX    TMP DP  RH WIND       PRES   REMARKS
BWI AIRPORT    PTCLDY    61  58  90 CALM      30.25S
MD SCIENCE CTR   N/A     67  60  78 MISG      30.26S
MARTIN STATE   CLEAR     64  63  94 SE5       30.26F
ANNAPOLIS      CLEAR     66  59  78 CALM      30.25S
FORT MEADE*    CLEAR     55  54  94 CALM      30.27S

$$

MDZ012-015-019>023-250800-
MARYLAND EASTERN SHORE

CITY           SKY/WX    TMP DP  RH WIND       PRES   REMARKS
OCEAN CITY     CLEAR     65  58  78 SW10      30.29S
SALISBURY      CLEAR     58  54  86 S3        30.28F
BAY BRIDGE AP*   N/A    N/A N/A N/A S7        30.26S
CAMBRIDGE*     CLEAR     70  59  68 S5        30.27S
EASTON*        CLEAR     66  63  88 SW6       30.30S

$$

MDZ017>025-250800-
SOUTHERN MARYLAND

CITY           SKY/WX    TMP DP  RH WIND       PRES   REMARKS
PATUXENT RIVER CLEAR     67  57  70 SW14      30.26F
ST INIGOES     CLEAR     67  58  72 SW8       30.27S
LEONARDTOWN*   CLEAR     64  55  72 S6        30.29S

$$

MDZ003>005-250800-
NORTH CENTRAL MARYLAND

CITY           SKY/WX    TMP DP  RH WIND       PRES   REMARKS
FREDERICK*     CLEAR     55  54  94 CALM      30.26S
HAGERSTOWN APT CLEAR     66  54  65 S6        30.23R
WESTMINSTER*   PTCLDY    66  57  72 S7        30.25S

$$

MDZ501>502-250800-
WESTERN MARYLAND

CITY           SKY/WX    TMP DP  RH WIND       PRES   REMARKS
OAKLAND*       PTCLDY    59  54  82 SW8       30.29F
CUMBERLAND*    CLEAR     59  54  82 CALM      30.27S

$$

VAZ025>031-250800-
SHENANDOAH VALLEY

CITY           SKY/WX    TMP DP  RH WIND       PRES   REMARKS
WINCHESTER*    CLEAR     64  48  55 CALM      30.24R
FRONT ROYAL*   FAIR      64  54  68 S6        30.23S
LURAY*         FAIR      66  55  68 S8        30.25F
NEW MARKET*    FAIR      60  54  80 SW5       30.25S
STAUNTON*      CLEAR     56  52  86 CALM      30.29F
WAYNESBORO*    FAIR      58  52  81 CALM      30.28F

$$

WVZ021-048>050-054>055-250800-
EASTERN WEST VIRGINIA PANHANDLE

CITY           SKY/WX    TMP DP  RH WIND       PRES   REMARKS
MARTINSBURG    CLEAR     59  55  87 S3        30.23S
PETERSBURG*    CLEAR     56  52  86 CALM      30.24F

$$

VAZ036>039-050-250800-
CENTRAL FOOTHILLS

CITY           SKY/WX    TMP DP  RH WIND       PRES   REMARKS
CHARLOTTESVILL CLEAR     62  55  77 CALM      30.26F
CULPEPER*      CLEAR     58  55  88 CALM      30.26F
ORANGE*        CLEAR     61  55  82 CALM      30.28S
GORDONSVILLE*  FAIR      56  55  94 CALM      30.27S
WARRENTON*     FAIR      64  58  81 S3        30.25S

$$

VAZ055>057-250800-
NORTH AND CENTRAL PIEDMONT

CITY           SKY/WX    TMP DP  RH WIND       PRES   REMARKS
FREDERICKSBRG* CLEAR     67  58  72 S6        30.26S
STAFFORD*      CLEAR     62  55  76 CALM      30.30S

$$

NCZ024-NYZ072-PAZ021-071-VAZ022-071-250800-
OTHER REGIONAL OBSERVATIONS

CITY           SKY/WX    TMP DP  RH WIND       PRES   REMARKS
NEW YORK CITY  PTCLDY    65  50  58 W6        30.28S
PHILADELPHIA   CLOUDY    65  56  72 S3        30.27S
PITTSBURGH     CLEAR     62  50  64 CALM      30.17F
ROANOKE        CLEAR     58  53  84 CALM      30.30F
RICHMOND       CLEAR     67  56  67 S10       30.29S
RALEIGH        CLEAR     64  56  75 SW5       30.33S

$$

ANZ530>537-250800-
MARINE OBSERVATIONS

STATION/POSITION TIME  TEMP    WIND        PRES
                       AIR SEA DIR/SP/G
                 (UTC) (F)     (DEG/KT/KT) (MB)
THOMAS PT LIGHT  0700   67 66  200/ 10/ 11 1025.0S
BALT KEY BRIDGE  0600   67     150/  6/  6 1024.0F
LEWISETTA        0600   68 71              1025.0F
SOLOMONS ISLAND  0600      70                N/A
PINEY POINT      0600          230/  9/ 11   N/A

$$




USA.gov is the U.S. government's official web portal to all federal, state and local government web resources and services.